Stations météo

réclame
Mon MeteoGroup
S. Maria Di Leuca, Italie (16360): Température de l'air & dewpoint: 13.10.2017 21:00:00 - 19.10.2017 21:00:00 (CEST)S. Maria Di Leuca, Italie (16360): Vitesse du vent: 13.10.2017 21:00:00 - 19.10.2017 21:00:00 (CEST)S. Maria Di Leuca, Italie (16360): Direction du vent: 13.10.2017 21:00:00 - 19.10.2017 21:00:00 (CEST)S. Maria Di Leuca, Italie (16360): reduced air pressure: 13.10.2017 21:00:00 - 19.10.2017 21:00:00 (CEST)S. Maria Di Leuca, Italie (16360): visibility: 13.10.2017 21:00:00 - 19.10.2017 21:00:00 (CEST)S. Maria Di Leuca, Italie (16360): Ensoleillement: 13.10.2017 21:00:00 - 19.10.2017 21:00:00 (CEST)
Date & Time tt [°C] td [°C] ff [km/h] ff [knt] dd ppp [hPa] vv [km] sd [min]
19.10.2017 21:00:00 19,8 17,2 9 5 SSW 1017,3 10 -
19.10.2017 20:00:00 20,0 18,0 8 4 S 1017,3 10 -
19.10.2017 19:00:00 20,6 18,5 8 4 S 1017,3 10 0
19.10.2017 18:00:00 21,0 19,1 9 5 S 1017,3 10 36
19.10.2017 17:00:00 21,4 18,2 11 6 S 1017,3 10 60
19.10.2017 16:00:00 21,6 17,6 9 5 S 1017,4 10 60
19.10.2017 15:00:00 21,6 17,6 9 5 SSE 1018,1 10 60
19.10.2017 14:00:00 21,6 17,4 11 6 S 1018,4 10 54
19.10.2017 13:00:00 21,4 16,8 9 5 S 1018,4 10 54
19.10.2017 12:00:00 20,8 17,2 11 6 S 1018,3 10 60
19.10.2017 11:00:00 20,4 16,0 9 5 S 1018,3 10 60
19.10.2017 10:00:00 20,0 16,4 8 4 S 1018,4 10 60
19.10.2017 09:00:00 19,6 17,2 4 2 SSE 1018,3 10 60
19.10.2017 08:00:00 19,0 17,0 4 2 S 1018,1 10 12
19.10.2017 07:00:00 18,6 16,4 9 5 SW 1018,1 10 -
19.10.2017 06:00:00 18,4 16,2 5 3 S 1018,2 10 -
19.10.2017 05:00:00 18,4 16,5 5 3 SSE 1018,2 10 -
19.10.2017 04:00:00 18,6 16,8 5 3 SSE 1018,2 10 -
19.10.2017 03:00:00 18,6 16,8 5 3 SSE 1018,2 10 -
19.10.2017 02:00:00 18,4 16,6 5 3 SE 1018,2 10 -
19.10.2017 01:00:00 18,8 16,8 4 2 SE 1018,1 10 -
19.10.2017 00:00:00 19,0 17,0 5 3 S 1018,1 10 -
18.10.2017 23:00:00 19,0 17,0 4 2 S 1018,1 10 -
18.10.2017 22:00:00 19,0 17,3 4 2 S 1018,1 10 -
18.10.2017 21:00:00 19,0 17,5 4 2 S 1018,1 10 -
18.10.2017 20:00:00 19,2 17,7 4 2 S 1018,1 10 -
18.10.2017 19:00:00 19,4 17,9 4 2 SSW 1017,9 10 0
18.10.2017 18:00:00 20,4 18,9 4 2 S 1017,9 8 18
18.10.2017 17:00:00 20,6 17,8 4 2 S 1018,2 8 60
18.10.2017 16:00:00 20,4 15,6 4 2 S 1018,7 8 60
18.10.2017 15:00:00 20,8 16,6 5 3 S 1019,1 8 60
18.10.2017 14:00:00 20,6 17,2 5 3 WSW 1019,7 6 60
18.10.2017 13:00:00 20,8 16,8 5 3 NE 1020,1 6 60
18.10.2017 12:00:00 19,2 16,4 8 4 SW 1020,1 6 60
18.10.2017 11:00:00 17,0 13,1 4 2 N 1020,3 5 42
18.10.2017 10:00:00 17,0 13,1 9 5 NNE 1020,3 3,0 30
18.10.2017 09:00:00 16,2 12,4 11 6 NNE 1020,3 3,0 0
18.10.2017 08:00:00 15,6 11,8 13 7 NNE 1020,4 3,0 0
18.10.2017 07:00:00 16,0 12,0 9 5 NNE 1020,3 4,0 0
18.10.2017 06:00:00 16,4 12,5 9 5 NNE 1020,0 6 -
18.10.2017 05:00:00 16,4 12,5 9 5 NNE 1020,5 8 -
18.10.2017 04:00:00 17,4 14,5 8 4 N 1020,6 8 -
18.10.2017 03:00:00 18,0 15,4 8 4 NNW 1021,0 8 -
18.10.2017 02:00:00 18,2 15,8 5 3 NW 1021,3 8 -
18.10.2017 01:00:00 17,8 15,1 8 4 NW 1021,6 8 -
18.10.2017 00:00:00 18,0 15,6 8 4 NNW 1021,8 8 -
17.10.2017 23:00:00 18,2 15,8 8 4 NNW 1021,9 8 -
17.10.2017 22:00:00 18,6 16,0 8 4 NW 1021,9 8 -
17.10.2017 21:00:00 19,2 17,2 9 5 WNW 1021,8 8 -
17.10.2017 20:00:00 19,4 17,9 11 6 WNW 1022,0 8 -
17.10.2017 19:00:00 20,0 18,5 4 2 NNW 1022,6 8 0
17.10.2017 18:00:00 20,6 19,1 8 4 NE 1022,5 8 48
17.10.2017 17:00:00 21,4 18,8 9 5 ENE 1022,8 8 60
17.10.2017 16:00:00 21,8 19,4 5 3 W 1023,0 8 60
17.10.2017 15:00:00 21,4 18,6 4 2 SSW 1023,7 8 60
17.10.2017 14:00:00 21,2 18,8 8 4 SW 1024,7 8 60
17.10.2017 13:00:00 20,6 18,7 8 4 WSW 1025,1 8 60
17.10.2017 12:00:00 20,8 18,4 8 4 WSW 1025,1 8 60
17.10.2017 11:00:00 20,8 18,0 8 4 WSW 1025,1 8 60
17.10.2017 10:00:00 19,2 16,6 5 3 N 1025,1 7 60
17.10.2017 09:00:00 18,4 15,7 13 7 NNE 1024,8 4,0 30
17.10.2017 08:00:00 16,4 12,4 18 10 NNE 1024,6 3,0 0
17.10.2017 07:00:00 16,0 12,2 18 10 NNE 1024,5 6 0
17.10.2017 06:00:00 16,0 12,5 18 10 N 1024,5 10 -
17.10.2017 05:00:00 16,0 12,5 18 10 N 1024,9 10 -
17.10.2017 04:00:00 16,6 13,1 4 2 N 1025,2 10 -
17.10.2017 03:00:00 16,8 13,7 4 2 N 1025,3 10 -
17.10.2017 02:00:00 17,0 13,9 9 5 WNW 1025,5 10 -
17.10.2017 01:00:00 17,2 14,7 9 5 WNW 1025,5 10 -
17.10.2017 00:00:00 18,0 16,9 9 5 NNW 1025,5 10 -
16.10.2017 23:00:00 18,4 17,2 9 5 N 1025,5 10 -
16.10.2017 22:00:00 19,0 17,8 18 10 NNE 1025,4 10 -
16.10.2017 21:00:00 19,2 18,0 18 10 NNE 1025,4 10 -
16.10.2017 20:00:00 19,2 18,6 18 10 NNE 1025,4 10 -
16.10.2017 19:00:00 21,2 18,4 9 5 NNE 1025,1 9 0
16.10.2017 18:00:00 21,6 19,9 0 0 N 1025,1 10 30
16.10.2017 17:00:00 22,4 19,6 9 5 WSW 1025,2 10 30
16.10.2017 16:00:00 22,6 19,6 9 5 WSW 1025,2 10 60
16.10.2017 15:00:00 23,4 20,3 11 6 WSW 1025,4 10 60
16.10.2017 14:00:00 23,6 19,5 9 5 WSW 1025,3 10 60
16.10.2017 13:00:00 23,4 17,8 9 5 WSW 1025,8 10 60
16.10.2017 12:00:00 22,6 16,6 11 6 NE 1025,8 10 60
16.10.2017 11:00:00 20,0 16,0 16 9 NNE 1025,9 10 60
16.10.2017 10:00:00 18,8 16,0 21 11 NNE 1025,7 10 48
16.10.2017 09:00:00 17,0 14,7 18 10 N 1025,5 6 12
16.10.2017 08:00:00 16,4 13,7 16 9 NNE 1025,2 4,0 0
16.10.2017 07:00:00 16,4 13,7 18 10 N 1025,5 2,5 -
16.10.2017 06:00:00 16,4 13,7 18 10 N 1025,5 6 -
16.10.2017 05:00:00 16,4 13,9 16 9 N 1025,5 10 -
16.10.2017 04:00:00 17,0 14,5 13 7 NNW 1025,8 10 -
16.10.2017 03:00:00 17,0 14,5 13 7 NNW 1026,0 10 -
16.10.2017 02:00:00 17,0 14,5 11 6 NNW 1026,0 10 -
16.10.2017 01:00:00 17,0 -30,0 13 7 N 1025,9 10 -
16.10.2017 00:00:00 17,0 15,0 18 10 NNE 1025,9 10 -
15.10.2017 23:00:00 17,2 15,5 16 9 N 1025,9 10 -
15.10.2017 22:00:00 17,6 16,6 18 10 N 1025,5 10 -
15.10.2017 21:00:00 18,0 16,7 16 9 N 1025,3 10 -
15.10.2017 20:00:00 18,8 14,1 21 11 NNE 1025,2 10 -
15.10.2017 19:00:00 20,2 16,0 9 5 NNE 1025,2 10 0
15.10.2017 18:00:00 20,6 13,8 9 5 NNE 1025,2 10 0
15.10.2017 17:00:00 21,4 15,7 18 10 ENE 1025,1 10 60
15.10.2017 16:00:00 21,8 14,4 18 10 ENE 1025,2 10 60
15.10.2017 15:00:00 22,2 14,1 18 10 ENE 1025,4 10 60
15.10.2017 14:00:00 22,2 14,1 18 10 NE 1025,6 10 60
15.10.2017 13:00:00 22,0 13,6 18 10 ENE 1026,1 10 60
15.10.2017 12:00:00 22,2 13,3 21 11 NE 1025,9 10 60
15.10.2017 11:00:00 21,2 14,8 18 10 NNE 1025,3 10 60
15.10.2017 10:00:00 18,8 14,7 18 10 NNE 1024,7 10 60
15.10.2017 09:00:00 18,0 15,6 28 15 NNE 1024,5 10 60
15.10.2017 08:00:00 17,4 15,4 28 15 NNE 1023,9 10 42
15.10.2017 07:00:00 17,4 15,6 29 16 NNE 1023,6 10 -
15.10.2017 06:00:00 17,2 15,5 31 17 N 1023,6 10 -
15.10.2017 05:00:00 17,2 15,7 31 17 N 1023,6 10 -
15.10.2017 04:00:00 17,0 15,4 18 10 N 1023,6 10 -
15.10.2017 03:00:00 17,0 15,4 16 9 N 1023,6 10 -
15.10.2017 02:00:00 17,2 15,0 21 11 NNW 1023,6 10 -
15.10.2017 01:00:00 17,2 15,5 18 10 N 1023,6 10 -
15.10.2017 00:00:00 17,2 15,7 22 12 N 1023,6 10 -
14.10.2017 23:00:00 17,6 16,5 21 11 N 1023,6 10 -
14.10.2017 22:00:00 17,6 16,5 26 14 N 1023,6 10 -
14.10.2017 21:00:00 17,8 16,7 29 16 N 1023,6 10 -
14.10.2017 20:00:00 18,6 16,4 22 12 N 1023,5 10 -
14.10.2017 19:00:00 19,4 14,7 15 8 N 1023,4 10 0
14.10.2017 18:00:00 20,4 13,8 15 8 N 1023,2 10 48
14.10.2017 17:00:00 21,2 14,4 24 13 NNE 1023,0 10 60
14.10.2017 16:00:00 22,0 12,3 29 16 NNE 1022,9 10 60
14.10.2017 15:00:00 22,0 12,3 28 15 N 1023,0 10 60
14.10.2017 14:00:00 22,0 13,9 24 13 N 1023,2 10 60
14.10.2017 13:00:00 22,4 14,8 26 14 N 1023,5 10 60
14.10.2017 12:00:00 21,6 14,5 24 13 N 1024,0 10 60
14.10.2017 11:00:00 20,2 15,0 18 10 N 1024,1 10 60
14.10.2017 10:00:00 19,0 15,7 24 13 N 1023,7 10 60
14.10.2017 09:00:00 17,8 16,1 24 13 N 1023,7 10 60
14.10.2017 08:00:00 16,6 14,8 26 14 N 1022,9 10 12
14.10.2017 07:00:00 16,2 14,5 26 14 N 1022,6 10 -
14.10.2017 06:00:00 16,4 14,9 18 10 N 1022,6 10 -
14.10.2017 05:00:00 16,8 15,5 24 13 N 1022,8 10 -
14.10.2017 04:00:00 16,8 15,5 24 13 N 1022,9 10 -
14.10.2017 03:00:00 16,8 15,5 16 9 N 1022,9 10 -
14.10.2017 02:00:00 16,8 15,3 26 14 N 1022,9 10 -
14.10.2017 01:00:00 16,8 15,5 28 15 N 1023,0 10 -
14.10.2017 00:00:00 16,8 15,3 24 13 N 1023,0 10 -
13.10.2017 23:00:00 16,8 15,3 22 12 N 1023,0 10 -
13.10.2017 22:00:00 17,0 15,7 22 12 NNE 1022,8 10 -
13.10.2017 21:00:00 17,0 15,4 22 12 N 1022,5 10 -

tt = Température de l'air
td = dewpoint
ff = Vitesse du vent
dd = Direction du vent
ppp = reduced air pressure
vv = visibility
sd = Ensoleillement

stations d'obs. à proximité